User: anonymous   Login
Location: Pleiades Observatory
(40.1297°N, 91.5238°W)
Time: 23:56:35
(UTC-06:00)
Language:

Cosmos 1842 Rocket - Orbit

View from above orbital plane
View from above orbital plane
View from above satellite
View from above satellite

Ground track
Ground track

The orbit data is extracted from the following two-line orbital elements,

1 17912U 87038B   18049.51441857  .00000082  00000-0  71454-5 0  9999
2 17912  82.5039 179.2493 0021329 136.5788 223.7112 14.82965409664236
Epoch (UTC): 18 February 2018 12:20:45
Eccentricity: 0.0021329
inclination: 82.5039°
perigee height: 605 km
apogee height: 635 km
right ascension of ascending node: 179.2493°
argument of perigee: 136.5788°
revolutions per day: 14.82965409
mean anomaly at epoch: 223.7112°
orbit number at epoch: 66423

The dashed part of the orbit path shows where the satellite is in the earth's shadow,  

DLR